Total_Precipitation_Accumulation
0.16 0.14 0.14 0.17 0.20 0.25 0.31 0.37 0.54 0.70 0.86 0.98 1.13 1.38 1.54 1.64 1.63 1.63 1.70 1.62 1.43 1.52 1.63 1.60 1.81 1.87 1.84 1.84 1.77 1.88 1.88 1.61 1.45 1.68 1.63 1.22 0.95 0.84 0.85 0.88 0.89 0.89 0.86
0.08 0.06 0.07 0.10 0.12 0.16 0.22 0.30 0.44 0.67 0.92 1.15 1.33 1.52 1.84 2.00 2.00 2.06 2.01 1.96 1.85 1.86 1.79 1.87 2.07 2.11 2.21 2.30 2.13 2.24 2.29 1.97 1.67 2.02 2.40 1.90 1.48 0.95 0.77 0.85 0.92 0.98 0.97
0.07 0.06 0.05 0.06 0.07 0.09 0.14 0.21 0.34 0.57 0.88 1.19 1.45 1.64 1.88 2.14 2.24 2.15 2.10 2.13 2.21 2.26 2.14 2.10 2.22 2.23 2.30 2.47 2.50 2.44 2.50 2.39 2.09 2.06 2.44 2.27 1.94 1.52 0.96 0.85 0.92 1.03 1.06
0.10 0.09 0.07 0.06 0.07 0.10 0.13 0.17 0.32 0.48 0.72 0.99 1.32 1.57 1.84 2.15 2.22 2.20 2.17 2.21 2.33 2.42 2.37 2.32 2.38 2.38 2.32 2.43 2.51 2.49 2.67 2.81 2.52 2.28 2.05 1.94 1.93 1.90 1.46 1.04 0.96 1.08 1.14
0.15 0.13 0.11 0.11 0.12 0.15 0.18 0.25 0.38 0.54 0.74 0.98 1.30 1.63 1.82 1.99 2.19 2.20 2.11 2.05 2.11 2.13 2.12 2.22 2.38 2.38 2.35 2.36 2.53 2.64 2.81 2.76 2.67 2.51 2.37 2.19 1.99 1.64 1.68 1.55 1.28 1.23 1.13
0.15 0.17 0.21 0.22 0.22 0.24 0.30 0.38 0.51 0.72 0.87 0.97 1.12 1.29 1.50 1.78 1.92 2.02 2.06 2.07 2.06 1.94 1.87 1.96 2.06 2.15 2.20 2.18 2.23 2.38 2.52 2.67 2.80 2.72 2.53 2.39 2.25 2.05 1.91 1.62 1.46 1.52 1.35
0.26 0.33 0.43 0.40 0.37 0.40 0.49 0.56 0.63 0.74 0.79 0.78 0.87 1.00 1.16 1.38 1.52 1.61 1.80 1.87 1.91 1.86 1.80 1.77 1.85 1.92 1.96 2.07 2.23 2.21 2.22 2.39 2.58 2.57 2.49 2.46 2.24 2.11 2.15 1.98 1.64 1.56 1.44
0.39 0.54 0.66 0.70 0.64 0.62 0.64 0.62 0.63 0.60 0.62 0.66 0.73 0.80 0.87 1.01 1.13 1.21 1.37 1.49 1.49 1.47 1.45 1.50 1.61 1.76 1.86 1.95 2.08 2.11 2.07 2.15 2.21 2.23 2.32 2.38 2.26 2.04 1.98 2.00 2.08 1.82 1.57
0.57 0.73 0.86 0.93 0.88 0.79 0.72 0.68 0.68 0.65 0.58 0.61 0.69 0.75 0.80 0.82 0.85 0.89 0.88 0.97 1.05 1.08 1.14 1.19 1.32 1.52 1.66 1.73 1.82 1.95 1.95 2.00 2.00 2.06 2.12 2.11 2.14 1.99 1.84 1.81 1.89 1.98 1.77
0.80 0.91 0.99 0.98 0.96 1.00 0.94 0.77 0.71 0.71 0.66 0.73 0.75 0.72 0.71 0.69 0.67 0.71 0.77 0.78 0.87 0.97 1.07 1.08 1.16 1.27 1.37 1.48 1.66 1.79 1.86 1.88 1.84 1.83 1.89 1.92 1.97 1.99 1.96 1.92 1.89 1.84 1.79
1.00 1.02 1.08 1.02 0.89 0.89 0.87 0.85 0.79 0.74 0.75 0.80 0.80 0.70 0.67 0.67 0.67 0.65 0.67 0.76 0.85 0.95 1.00 1.05 1.10 1.14 1.24 1.29 1.40 1.53 1.67 1.69 1.69 1.60 1.63 1.73 1.79 1.96 1.99 1.96 1.90 1.88 1.80
0.95 0.98 1.05 0.97 0.81 0.77 0.68 0.72 0.79 0.80 0.85 0.86 0.80 0.71 0.71 0.74 0.79 0.77 0.70 0.71 0.77 0.79 0.90 1.04 1.03 1.04 1.10 1.18 1.28 1.38 1.42 1.51 1.47 1.37 1.37 1.49 1.57 1.71 1.83 1.93 1.85 1.85 1.80
0.73 0.72 0.74 0.80 0.76 0.72 0.65 0.70 0.76 0.81 0.85 0.86 0.84 0.76 0.66 0.69 0.75 0.75 0.68 0.65 0.70 0.74 0.88 1.02 1.14 1.06 0.97 1.05 1.15 1.21 1.23 1.24 1.19 1.16 1.17 1.22 1.29 1.41 1.54 1.66 1.76 1.76 1.71
0.52 0.50 0.46 0.52 0.55 0.57 0.62 0.66 0.77 0.89 0.93 0.91 0.85 0.82 0.76 0.78 0.73 0.64 0.61 0.63 0.63 0.61 0.68 0.82 0.94 0.99 0.95 0.90 0.91 0.96 1.11 1.11 1.02 0.93 0.92 0.95 0.97 1.07 1.22 1.35 1.49 1.63 1.75
0.37 0.35 0.32 0.32 0.34 0.37 0.45 0.52 0.65 0.81 0.93 0.97 0.92 0.85 0.80 0.70 0.63 0.57 0.51 0.52 0.48 0.47 0.54 0.70 0.88 0.94 0.94 0.98 0.97 0.90 0.93 0.98 0.99 0.91 0.83 0.77 0.76 0.85 0.94 1.04 1.28 1.47 1.62
0.27 0.24 0.24 0.21 0.23 0.29 0.36 0.36 0.48 0.63 0.74 0.79 0.80 0.81 0.77 0.62 0.54 0.48 0.41 0.40 0.41 0.42 0.45 0.53 0.69 0.85 0.84 0.99 1.04 0.98 0.90 0.90 0.89 0.88 0.89 0.88 0.83 0.72 0.66 0.70 0.87 1.10 1.30
0.23 0.21 0.20 0.21 0.23 0.30 0.31 0.32 0.41 0.52 0.57 0.61 0.64 0.66 0.61 0.49 0.43 0.35 0.31 0.34 0.36 0.38 0.41 0.47 0.59 0.74 0.89 0.92 0.83 0.92 0.93 0.89 0.89 0.86 0.86 0.90 0.89 0.92 0.81 0.73 0.71 0.75 0.92
0.16 0.21 0.18 0.17 0.19 0.24 0.29 0.37 0.40 0.41 0.41 0.45 0.49 0.47 0.47 0.43 0.35 0.28 0.28 0.30 0.34 0.37 0.39 0.43 0.49 0.57 0.76 0.81 0.72 0.90 0.94 0.94 0.93 0.91 0.93 0.95 0.98 0.96 1.05 1.02 0.92 0.87 0.87
0.07 0.10 0.09 0.09 0.10 0.10 0.11 0.14 0.17 0.19 0.23 0.30 0.36 0.40 0.40 0.37 0.31 0.27 0.33 0.40 0.40 0.39 0.38 0.38 0.41 0.44 0.53 0.62 0.60 0.74 0.88 0.98 0.97 0.86 0.87 0.92 0.95 1.14 1.18 1.09 1.06 0.99 0.95
0.02 0.03 0.03 0.03 0.03 0.02 0.02 0.03 0.05 0.09 0.13 0.19 0.24 0.28 0.31 0.34 0.38 0.46 0.54 0.56 0.52 0.46 0.41 0.39 0.38 0.40 0.42 0.55 0.45 0.57 0.74 0.90 0.99 0.93 0.89 1.05 1.01 1.02 0.97 0.93 1.11 1.09 0.98
0.01 0.01 0.01 0.01 0.01 0.00 0.00 0.00 0.01 0.02 0.02 0.04 0.10 0.18 0.29 0.35 0.44 0.56 0.59 0.58 0.52 0.44 0.40 0.38 0.36 0.36 0.45 0.60 0.54 0.61 0.70 0.82 0.90 0.93 0.95 0.93 1.01 0.84 0.79 0.83 0.98 1.12 1.05
0.01 0.00 0.00 0.00 0.00 0.00 0.00 0.00 0.00 0.00 0.01 0.03 0.07 0.13 0.20 0.29 0.42 0.51 0.51 0.50 0.49 0.46 0.42 0.43 0.40 0.42 0.53 0.60 0.61 0.61 0.65 0.72 0.80 0.82 0.75 0.74 0.81 0.67 0.62 0.61 0.74 0.91 0.92
0.01 0.00 0.00 0.00 0.00 0.00 0.00 0.00 0.00 0.00 0.00 0.01 0.02 0.06 0.11 0.22 0.36 0.39 0.39 0.42 0.45 0.44 0.43 0.41 0.39 0.39 0.46 0.57 0.67 0.57 0.49 0.48 0.56 0.62 0.62 0.55 0.51 0.51 0.47 0.51 0.60 0.66 0.79
0.01 0.00 0.00 0.00 0.00 0.00 0.00 0.00 0.00 0.00 0.00 0.00 0.00 0.01 0.02 0.05 0.10 0.15 0.20 0.26 0.32 0.33 0.32 0.35 0.39 0.42 0.42 0.42 0.48 0.50 0.46 0.41 0.41 0.41 0.35 0.33 0.36 0.43 0.45 0.46 0.48 0.54 0.74
0.01 0.00 0.00 0.00 0.00 0.00 0.00 0.00 0.00 0.00 0.00 0.00 0.00 0.01 0.02 0.03 0.04 0.06 0.09 0.13 0.16 0.19 0.25 0.30 0.34 0.35 0.39 0.38 0.41 0.42 0.43 0.48 0.51 0.52 0.45 0.38 0.37 0.38 0.42 0.45 0.50 0.62 0.72
0.01 0.01 0.00 0.00 0.00 0.00 0.00 0.00 0.00 0.00 0.00 0.00 0.00 0.00 0.01 0.01 0.01 0.02 0.03 0.04 0.06 0.09 0.12 0.15 0.18 0.18 0.24 0.31 0.33 0.36 0.38 0.40 0.47 0.51 0.52 0.52 0.53 0.53 0.52 0.50 0.47 0.48 0.56